Time,TemperatureF,DewpointF,PressureIn,WindDirection,WindDirectionDegrees,WindSpeedMPH,WindSpeedGustMPH,Humidity,HourlyPrecipIn,Conditions,Clouds,dailyrainin,SolarRadiationWatts/m^2,SoftwareType,DateUTC
2013-01-27 00:01:00,18.0,8.0,-100.00,SSE,165,4.0,10.0,64,0.00,,,0.00,0.000000,,2013-01-27 06:01:00,
2013-01-27 00:10:00,18.0,7.0,-100.00,SSE,157,5.0,11.0,62,0.00,,,0.00,0.000000,,2013-01-27 06:10:00,
2013-01-27 00:32:00,18.0,7.0,-100.00,SSE,157,5.0,11.0,62,0.00,,,0.00,0.000000,,2013-01-27 06:32:00,
2013-01-27 00:42:00,18.0,7.0,-100.00,SSE,157,5.0,11.0,62,0.00,,,0.00,0.000000,,2013-01-27 06:42:00,
2013-01-27 00:52:00,18.0,7.0,-100.00,SSE,157,5.0,11.0,62,0.00,,,0.00,0.000000,,2013-01-27 06:52:00,
2013-01-27 01:01:00,18.0,7.0,-100.00,SSE,157,5.0,11.0,62,0.00,,,0.00,0.000000,,2013-01-27 07:01:00,
2013-01-27 01:10:00,19.0,7.0,-100.00,South,172,4.0,12.0,60,0.00,,,0.00,0.000000,,2013-01-27 07:10:00,
2013-01-27 01:32:00,19.0,7.0,-100.00,South,172,4.0,12.0,60,0.00,,,0.00,0.000000,,2013-01-27 07:32:00,
2013-01-27 01:42:00,19.0,7.0,-100.00,South,172,4.0,12.0,60,0.00,,,0.00,0.000000,,2013-01-27 07:42:00,
2013-01-27 01:52:00,19.0,7.0,-100.00,South,172,4.0,12.0,60,0.00,,,0.00,0.000000,,2013-01-27 07:52:00,
2013-01-27 02:01:00,19.0,7.0,-100.00,South,172,4.0,12.0,60,0.00,,,0.00,0.000000,,2013-01-27 08:01:00,
2013-01-27 02:10:00,19.0,8.0,-100.00,South,183,5.0,11.0,62,0.00,,,0.00,0.000000,,2013-01-27 08:10:00,
2013-01-27 02:32:00,19.0,8.0,-100.00,South,183,5.0,11.0,62,0.00,,,0.00,0.000000,,2013-01-27 08:32:00,
2013-01-27 02:42:00,19.0,8.0,-100.00,South,183,5.0,11.0,62,0.00,,,0.00,0.000000,,2013-01-27 08:42:00,
2013-01-27 02:52:00,19.0,8.0,-100.00,South,183,5.0,11.0,62,0.00,,,0.00,0.000000,,2013-01-27 08:52:00,
2013-01-27 03:02:00,19.0,8.0,-100.00,South,183,5.0,11.0,62,0.00,,,0.00,0.000000,,2013-01-27 09:02:00,
2013-01-27 03:10:00,18.0,10.0,-100.00,SSE,166,3.0,11.0,69,0.00,,,0.00,0.000000,,2013-01-27 09:10:00,
2013-01-27 03:32:00,18.0,10.0,-100.00,SSE,166,3.0,11.0,69,0.00,,,0.00,0.000000,,2013-01-27 09:32:00,
2013-01-27 03:42:00,18.0,10.0,-100.00,SSE,166,3.0,11.0,69,0.00,,,0.00,0.000000,,2013-01-27 09:42:00,
2013-01-27 03:52:00,18.0,10.0,-100.00,SSE,166,3.0,11.0,69,0.00,,,0.00,0.000000,,2013-01-27 09:52:00,
2013-01-27 04:01:00,18.0,10.0,-100.00,SSE,166,3.0,11.0,69,0.00,,,0.00,0.000000,,2013-01-27 10:01:00,
2013-01-27 04:10:00,18.0,11.0,-100.00,SSE,160,5.0,12.0,72,0.00,,,0.00,0.000000,,2013-01-27 10:10:00,
2013-01-27 04:32:00,18.0,11.0,-100.00,SSE,160,5.0,12.0,72,0.00,,,0.00,0.000000,,2013-01-27 10:32:00,
2013-01-27 04:42:00,18.0,11.0,-100.00,SSE,160,5.0,12.0,72,0.00,,,0.00,0.000000,,2013-01-27 10:42:00,
2013-01-27 04:52:00,18.0,11.0,-100.00,SSE,160,5.0,12.0,72,0.00,,,0.00,0.000000,,2013-01-27 10:52:00,
2013-01-27 05:01:00,18.0,11.0,-100.00,SSE,160,5.0,12.0,72,0.00,,,0.00,0.000000,,2013-01-27 11:01:00,
2013-01-27 05:10:00,19.0,11.0,-100.00,South,178,4.0,11.0,70,0.00,,,0.00,0.000000,,2013-01-27 11:10:00,
2013-01-27 05:32:00,19.0,11.0,-100.00,South,178,4.0,11.0,70,0.00,,,0.00,0.000000,,2013-01-27 11:32:00,
2013-01-27 05:42:00,19.0,11.0,-100.00,South,178,4.0,11.0,70,0.00,,,0.00,0.000000,,2013-01-27 11:42:00,
2013-01-27 05:52:00,19.0,11.0,-100.00,South,178,4.0,11.0,70,0.00,,,0.00,0.000000,,2013-01-27 11:52:00,
2013-01-27 06:02:00,19.0,11.0,-100.00,South,178,4.0,11.0,70,0.00,,,0.00,0.000000,,2013-01-27 12:02:00,
2013-01-27 06:10:00,19.0,11.0,-100.00,South,174,3.0,8.0,70,0.00,,,0.00,0.000000,,2013-01-27 12:10:00,
2013-01-27 06:33:00,19.0,11.0,-100.00,South,174,3.0,8.0,70,0.00,,,0.00,0.000000,,2013-01-27 12:33:00,
2013-01-27 06:42:00,19.0,11.0,-100.00,South,174,3.0,8.0,70,0.00,,,0.00,0.000000,,2013-01-27 12:42:00,
2013-01-27 06:52:00,19.0,11.0,-100.00,South,174,3.0,8.0,70,0.00,,,0.00,0.000000,,2013-01-27 12:52:00,
2013-01-27 07:02:00,19.0,11.0,-100.00,South,174,3.0,8.0,70,0.00,,,0.00,0.000000,,2013-01-27 13:02:00,
2013-01-27 07:10:00,19.0,11.0,-100.00,SSE,163,3.0,10.0,69,0.00,,,0.00,0.000000,,2013-01-27 13:10:00,
2013-01-27 07:32:00,19.0,11.0,-100.00,SSE,163,3.0,10.0,69,0.00,,,0.00,0.000000,,2013-01-27 13:32:00,
2013-01-27 07:42:00,19.0,11.0,-100.00,SSE,163,3.0,10.0,69,0.00,,,0.00,0.000000,,2013-01-27 13:42:00,
2013-01-27 07:52:00,19.0,11.0,-100.00,SSE,163,3.0,10.0,69,0.00,,,0.00,0.000000,,2013-01-27 13:52:00,
2013-01-27 08:02:00,19.0,11.0,-100.00,SSE,163,3.0,10.0,69,0.00,,,0.00,0.000000,,2013-01-27 14:02:00,
2013-01-27 08:10:00,20.0,11.0,-100.00,SSE,166,3.0,8.0,69,0.00,,,0.00,4.000000,,2013-01-27 14:10:00,
2013-01-27 08:53:00,20.0,11.0,-100.00,SSE,166,3.0,8.0,69,0.00,,,0.00,4.000000,,2013-01-27 14:53:00,
2013-01-27 09:02:00,20.0,11.0,-100.00,SSE,166,3.0,8.0,69,0.00,,,0.00,4.000000,,2013-01-27 15:02:00,
2013-01-27 09:10:00,23.0,13.0,-100.00,SSE,167,5.0,14.0,65,0.00,,,0.00,22.000000,,2013-01-27 15:10:00,
2013-01-27 09:33:00,23.0,13.0,-100.00,SSE,167,5.0,14.0,65,0.00,,,0.00,22.000000,,2013-01-27 15:33:00,
2013-01-27 09:42:00,23.0,13.0,-100.00,SSE,167,5.0,14.0,65,0.00,,,0.00,22.000000,,2013-01-27 15:42:00,
2013-01-27 09:53:00,23.0,13.0,-100.00,SSE,167,5.0,14.0,65,0.00,,,0.00,22.000000,,2013-01-27 15:53:00,
2013-01-27 10:02:00,23.0,13.0,-100.00,SSE,167,5.0,14.0,65,0.00,,,0.00,22.000000,,2013-01-27 16:02:00,
2013-01-27 10:10:00,26.0,14.0,-100.00,SSE,157,3.0,12.0,60,0.00,,,0.00,50.000000,,2013-01-27 16:10:00,
2013-01-27 10:33:00,26.0,14.0,-100.00,SSE,157,3.0,12.0,60,0.00,,,0.00,50.000000,,2013-01-27 16:33:00,
2013-01-27 10:42:00,26.0,14.0,-100.00,SSE,157,3.0,12.0,60,0.00,,,0.00,50.000000,,2013-01-27 16:42:00,
2013-01-27 10:53:00,26.0,14.0,-100.00,SSE,157,3.0,12.0,60,0.00,,,0.00,50.000000,,2013-01-27 16:53:00,
2013-01-27 11:02:00,26.0,14.0,-100.00,SSE,157,3.0,12.0,60,0.00,,,0.00,50.000000,,2013-01-27 17:02:00,
2013-01-27 11:10:00,27.0,13.0,-100.00,South,172,4.0,9.0,56,0.00,,,0.00,56.000000,,2013-01-27 17:10:00,
2013-01-27 11:32:00,27.0,13.0,-100.00,South,172,4.0,9.0,56,0.00,,,0.00,56.000000,,2013-01-27 17:32:00,
2013-01-27 11:42:00,27.0,13.0,-100.00,South,172,4.0,9.0,56,0.00,,,0.00,56.000000,,2013-01-27 17:42:00,
2013-01-27 11:53:00,27.0,13.0,-100.00,South,172,4.0,9.0,56,0.00,,,0.00,56.000000,,2013-01-27 17:53:00,
2013-01-27 12:02:00,27.0,13.0,-100.00,South,172,4.0,9.0,56,0.00,,,0.00,56.000000,,2013-01-27 18:02:00,
2013-01-27 12:10:00,30.0,15.0,-100.00,South,177,4.0,9.0,52,0.00,,,0.00,67.000000,,2013-01-27 18:10:00,
2013-01-27 12:32:00,30.0,15.0,-100.00,South,177,4.0,9.0,52,0.00,,,0.00,67.000000,,2013-01-27 18:32:00,
2013-01-27 12:42:00,30.0,15.0,-100.00,South,177,4.0,9.0,52,0.00,,,0.00,67.000000,,2013-01-27 18:42:00,
2013-01-27 12:52:00,30.0,15.0,-100.00,South,177,4.0,9.0,52,0.00,,,0.00,67.000000,,2013-01-27 18:52:00,
2013-01-27 13:02:00,30.0,15.0,-100.00,South,177,4.0,9.0,52,0.00,,,0.00,67.000000,,2013-01-27 19:02:00,
2013-01-27 13:10:00,31.0,14.0,-100.00,South,180,5.0,11.0,48,0.00,,,0.00,103.000000,,2013-01-27 19:10:00,
2013-01-27 13:33:00,31.0,14.0,-100.00,South,180,5.0,11.0,48,0.00,,,0.00,103.000000,,2013-01-27 19:33:00,
2013-01-27 13:42:00,31.0,14.0,-100.00,South,180,5.0,11.0,48,0.00,,,0.00,103.000000,,2013-01-27 19:42:00,
2013-01-27 13:52:00,31.0,14.0,-100.00,South,180,5.0,11.0,48,0.00,,,0.00,103.000000,,2013-01-27 19:52:00,
2013-01-27 14:02:00,31.0,14.0,-100.00,South,180,5.0,11.0,48,0.00,,,0.00,103.000000,,2013-01-27 20:02:00,
2013-01-27 14:10:00,30.0,13.0,-100.00,South,170,5.0,10.0,49,0.00,,,0.00,115.000000,,2013-01-27 20:10:00,
2013-01-27 14:33:00,30.0,13.0,-100.00,South,170,5.0,10.0,49,0.00,,,0.00,115.000000,,2013-01-27 20:33:00,
2013-01-27 14:42:00,30.0,13.0,-100.00,South,170,5.0,10.0,49,0.00,,,0.00,115.000000,,2013-01-27 20:42:00,
2013-01-27 14:52:00,30.0,13.0,-100.00,South,170,5.0,10.0,49,0.00,,,0.00,115.000000,,2013-01-27 20:52:00,
2013-01-27 15:02:00,30.0,13.0,-100.00,South,170,5.0,10.0,49,0.00,,,0.00,115.000000,,2013-01-27 21:02:00,
2013-01-27 15:10:00,29.0,15.0,-100.00,SSE,149,4.0,10.0,55,0.00,,,0.00,45.000000,,2013-01-27 21:10:00,
2013-01-27 15:33:00,29.0,15.0,-100.00,SSE,149,4.0,10.0,55,0.00,,,0.00,45.000000,,2013-01-27 21:33:00,
2013-01-27 15:43:00,29.0,15.0,-100.00,SSE,149,4.0,10.0,55,0.00,,,0.00,45.000000,,2013-01-27 21:43:00,
2013-01-27 15:52:00,29.0,15.0,-100.00,SSE,149,4.0,10.0,55,0.00,,,0.00,45.000000,,2013-01-27 21:52:00,
2013-01-27 16:02:00,29.0,15.0,-100.00,SSE,149,4.0,10.0,55,0.00,,,0.00,45.000000,,2013-01-27 22:02:00,
2013-01-27 17:10:00,26.0,24.0,-100.00,SE,126,4.0,10.0,93,-99.99,,,0.05,1.000000,,2013-01-27 23:10:00,
2013-01-27 17:32:00,26.0,24.0,-100.00,SE,126,4.0,10.0,93,-99.99,,,0.05,1.000000,,2013-01-27 23:32:00,
2013-01-27 17:42:00,26.0,24.0,-100.00,SE,126,4.0,10.0,93,-99.99,,,0.05,1.000000,,2013-01-27 23:42:00,
2013-01-27 17:53:00,26.0,24.0,-100.00,SE,126,4.0,10.0,93,-99.99,,,0.05,1.000000,,2013-01-27 23:53:00,
2013-01-27 18:02:00,26.0,24.0,-100.00,SE,126,4.0,10.0,93,-99.99,,,0.05,1.000000,,2013-01-28 00:02:00,
2013-01-27 18:10:00,26.0,25.0,-100.00,ESE,113,3.0,10.0,94,0.02,,,0.07,0.000000,,2013-01-28 00:10:00,
2013-01-27 18:33:00,26.0,25.0,-100.00,ESE,113,3.0,10.0,94,0.02,,,0.07,0.000000,,2013-01-28 00:33:00,
2013-01-27 18:42:00,26.0,25.0,-100.00,ESE,113,3.0,10.0,94,0.02,,,0.07,0.000000,,2013-01-28 00:42:00,
2013-01-27 18:52:00,26.0,25.0,-100.00,ESE,113,3.0,10.0,94,0.02,,,0.07,0.000000,,2013-01-28 00:52:00,
2013-01-27 19:02:00,26.0,25.0,-100.00,ESE,113,3.0,10.0,94,0.02,,,0.07,0.000000,,2013-01-28 01:02:00,
2013-01-27 19:10:00,26.0,25.0,-100.00,ESE,123,4.0,10.0,95,0.02,,,0.09,0.000000,,2013-01-28 01:10:00,
2013-01-27 19:33:00,26.0,25.0,-100.00,ESE,123,4.0,10.0,95,0.02,,,0.09,0.000000,,2013-01-28 01:33:00,
2013-01-27 19:42:00,26.0,25.0,-100.00,ESE,123,4.0,10.0,95,0.02,,,0.09,0.000000,,2013-01-28 01:42:00,
2013-01-27 19:52:00,26.0,25.0,-100.00,ESE,123,4.0,10.0,95,0.02,,,0.09,0.000000,,2013-01-28 01:52:00,
2013-01-27 20:02:00,26.0,25.0,-100.00,ESE,123,4.0,10.0,95,0.02,,,0.09,0.000000,,2013-01-28 02:02:00,
2013-01-27 20:10:00,26.0,25.0,-100.00,ESE,122,5.0,12.0,94,0.02,,,0.11,0.000000,,2013-01-28 02:10:00,
2013-01-27 20:42:00,26.0,25.0,-100.00,ESE,122,5.0,12.0,94,0.02,,,0.11,0.000000,,2013-01-28 02:42:00,
2013-01-27 20:52:00,26.0,25.0,-100.00,ESE,122,5.0,12.0,94,0.02,,,0.11,0.000000,,2013-01-28 02:52:00,
2013-01-27 21:02:00,26.0,25.0,-100.00,ESE,122,5.0,12.0,94,0.02,,,0.11,0.000000,,2013-01-28 03:02:00,
2013-01-27 21:10:00,26.0,25.0,-100.00,SE,130,4.0,11.0,95,0.03,,,0.14,0.000000,,2013-01-28 03:10:00,
2013-01-27 21:32:00,26.0,25.0,-100.00,SE,130,4.0,11.0,95,0.03,,,0.14,0.000000,,2013-01-28 03:32:00,
2013-01-27 21:42:00,26.0,25.0,-100.00,SE,130,4.0,11.0,95,0.03,,,0.14,0.000000,,2013-01-28 03:42:00,
2013-01-27 21:53:00,26.0,25.0,-100.00,SE,130,4.0,11.0,95,0.03,,,0.14,0.000000,,2013-01-28 03:53:00,
2013-01-27 22:02:00,26.0,25.0,-100.00,SE,130,4.0,11.0,95,0.03,,,0.14,0.000000,,2013-01-28 04:02:00,
2013-01-27 22:10:00,26.0,25.0,-100.00,ESE,113,2.0,8.0,95,0.03,,,0.17,0.000000,,2013-01-28 04:10:00,
2013-01-27 22:32:00,26.0,25.0,-100.00,ESE,113,2.0,8.0,95,0.03,,,0.17,0.000000,,2013-01-28 04:32:00,
2013-01-27 22:42:00,26.0,25.0,-100.00,ESE,113,2.0,8.0,95,0.03,,,0.17,0.000000,,2013-01-28 04:42:00,
2013-01-27 22:52:00,26.0,25.0,-100.00,ESE,113,2.0,8.0,95,0.03,,,0.17,0.000000,,2013-01-28 04:52:00,
2013-01-27 23:04:00,26.0,25.0,-100.00,ESE,113,2.0,8.0,95,0.03,,,0.17,0.000000,,2013-01-28 05:04:00,
2013-01-27 23:10:00,27.0,26.0,-100.00,ESE,114,3.0,7.0,96,0.03,,,0.20,0.000000,,2013-01-28 05:10:00,
2013-01-27 23:32:00,27.0,26.0,-100.00,ESE,114,3.0,7.0,96,0.03,,,0.20,0.000000,,2013-01-28 05:32:00,
2013-01-27 23:42:00,27.0,26.0,-100.00,ESE,114,3.0,7.0,96,0.03,,,0.20,0.000000,,2013-01-28 05:42:00,
2013-01-27 23:52:00,27.0,26.0,-100.00,ESE,114,3.0,7.0,96,0.03,,,0.20,0.000000,,2013-01-28 05:52:00,